Cloud_Cover
4 7 0 0 0 7 0 21 44 0 5 20 12 5 0 2 0 0 2 5 5 96 80 100 99 36 96 98 100 100 100 100 100 100 100 100 100 100 100 100 82 68 5 94
4 0 1 0 0 62 100 62 4 4 84 12 2 0 0 2 5 5 4 4 4 5 62 80 94 100 100 100 100 100 99 94 93 99 100 100 100 100 93 100 100 100 29 70
0 0 5 0 0 0 18 66 71 86 7 100 54 11 4 5 3 0 3 4 4 6 11 40 100 89 100 100 100 100 100 100 100 100 64 92 100 100 100 100 100 100 100 39
1 42 2 0 0 0 2 18 99 97 99 79 68 93 91 81 83 5 0 5 5 32 23 5 5 16 14 49 39 96 100 100 100 49 94 14 100 100 100 100 100 100 98 100
0 1 0 0 0 0 0 64 73 100 36 9 20 8 100 100 46 41 28 100 5 60 31 5 5 4 5 5 23 73 50 16 100 100 100 46 19 100 100 100 100 100 100 46
0 1 3 0 0 0 0 5 21 99 99 85 68 100 100 98 5 17 77 96 23 36 36 81 5 5 5 5 5 5 5 5 5 53 26 87 100 100 93 100 100 100 100 100
5 12 3 14 1 0 0 2 9 73 93 99 75 96 100 8 5 47 5 48 91 61 5 5 5 5 5 5 5 5 5 5 12 40 34 41 55 100 92 88 10 100 100 100
5 5 2 5 5 0 0 0 4 6 67 98 100 56 100 5 5 5 14 5 8 38 5 10 33 5 71 44 7 5 57 84 74 35 98 100 75 50 98 100 100 99 100 100
5 5 5 5 5 5 5 5 1 4 46 80 99 71 100 92 24 84 14 5 5 5 5 5 96 100 91 91 100 42 90 100 96 100 100 100 100 100 93 100 100 100 100 100
5 6 5 5 5 5 5 17 49 5 5 37 52 73 100 94 68 100 96 54 8 5 5 18 89 92 78 78 10 57 96 98 94 100 100 100 94 100 100 100 100 100 100 100
5 5 5 5 73 6 28 52 100 17 5 5 7 98 100 78 97 100 100 76 75 86 50 5 5 24 20 17 15 14 5 16 45 100 100 100 88 100 100 100 100 100 100 100
91 5 5 49 76 15 59 96 7 98 55 5 5 46 100 90 97 99 100 100 100 100 100 100 47 22 82 5 21 24 81 26 7 30 100 100 100 100 100 100 100 100 100 100
99 100 8 100 94 86 13 5 11 66 93 13 84 65 80 100 99 100 100 100 100 100 100 100 100 85 66 96 15 28 46 78 98 95 51 53 98 90 100 100 100 91 100 100
100 42 11 100 100 12 19 69 84 43 51 56 100 91 74 100 100 100 96 100 100 100 100 99 100 100 96 89 87 73 92 88 71 98 92 86 81 100 100 100 84 78 75 81
41 53 98 100 85 5 7 8 23 88 64 94 100 98 100 100 100 100 100 100 100 100 100 100 100 100 100 100 68 100 100 100 86 100 89 75 96 99 100 73 84 10 6 5
5 48 100 27 5 5 5 54 98 30 100 100 100 100 100 100 100 100 100 100 100 100 100 100 100 100 74 100 100 100 100 100 99 43 90 100 100 73 50 59 66 89 18 5
5 5 11 5 15 7 5 27 43 66 99 100 100 100 100 100 100 100 100 100 100 100 100 100 100 100 78 46 88 100 100 95 74 98 96 100 96 100 100 72 39 66 43 42
5 2 2 5 16 12 7 12 22 26 100 100 100 100 100 100 100 100 100 100 100 100 100 100 100 100 86 30 5 5 61 100 100 78 100 90 93 100 100 100 66 5 11 57
5 3 5 5 22 40 27 6 66 67 69 100 100 100 100 100 100 100 100 100 100 100 100 100 100 90 17 18 0 2 42 100 100 100 100 100 98 95 100 100 100 46 5 5
5 5 5 8 5 5 6 80 94 100 100 99 100 100 100 100 100 100 100 100 100 100 100 99 21 6 89 99 26 100 81 100 100 100 100 100 100 100 100 100 87 84 35 11
5 15 69 5 5 78 38 100 84 64 28 85 82 100 100 100 100 100 100 100 100 100 92 91 91 100 100 96 99 96 86 100 100 100 100 100 100 100 100 100 100 100 86 100
5 5 32 66 97 39 12 68 45 16 50 48 95 93 100 100 100 100 100 100 100 100 100 100 100 100 99 100 100 100 98 100 100 100 100 100 100 100 100 100 100 100 100 100
12 5 21 5 6 6 1 5 5 11 68 14 14 37 99 100 100 100 100 100 100 100 100 100 100 77 98 100 100 100 100 100 100 100 100 100 100 100 100 100 100 100 100 100
47 12 5 6 5 5 7 5 5 8 40 31 24 84 66 89 100 100 100 100 100 100 100 100 100 100 100 100 100 100 100 100 100 100 100 100 100 100 100 100 100 100 79 79
76 5 5 5 5 48 61 98 21 7 20 39 36 78 35 96 100 100 100 100 100 100 100 100 100 100 100 98 100 100 100 100 100 100 100 100 100 100 100 100 100 100 80 91
92 62 25 8 18 7 65 82 75 16 14 22 58 80 90 40 100 100 100 100 100 100 100 100 100 100 100 100 97 71 97 100 100 100 100 100 100 100 100 100 100 100 95 78
100 99 24 61 66 21 31 6 6 5 5 67 9 56 12 60 87 100 100 100 100 100 100 99 98 100 100 100 100 100 100 100 100 100 100 100 100 100 92 67 52 82 93 92